Date String (YYYY-MM-DD hh:mm:ss) UTC,Instrument flags,Ambient pressure (hPa),Sample flow (lpm),Bypass flow (lpm),Sample temperature (°C),Ambient temperature (°C),ASC tube jacket temperature (°C),LED temperature (°C),Box temperature (°C),Sample RH (%),Span deviation,Mass concentration (μg/m³),Mass concentration (μg/m³),Mass concentration (μg/m³)
DateTimeUTC,F1_M11,P_M11,Q1_M11,Q2_M11,T1_M11,T2_M11,T3_M11,T4_M11,T5_M11,U1_M11,ZSPAN_M11,X0_M11,X2_M11,X1_M11
2022-05-05 09:00:00,,0824.7,4.99,0.00,25.4,24.5,00.0,34.4,27.2,20.7,0001.4,0009.80,0006.15,0005.40
2022-05-05 09:01:00,,0824.7,5.01,0.00,25.4,24.5,00.0,34.4,27.2,20.7,0000.3,0009.66,0006.10,0005.39
2022-05-05 09:02:00,,0824.8,5.00,0.00,25.4,24.5,00.0,34.4,27.2,20.6,0000.1,0009.62,0006.08,0005.37
2022-05-05 09:03:00,,0824.6,4.99,0.00,25.4,24.5,00.0,34.4,27.2,20.6,-000.4,0009.57,0006.02,0005.33
2022-05-05 09:04:00,,0824.7,5.01,0.00,25.4,24.5,00.0,34.3,27.2,20.5,-000.4,0009.51,0005.98,0005.29
2022-05-05 09:05:00,,0824.7,5.01,0.00,25.4,24.5,00.0,34.3,27.2,20.5,-000.5,0009.48,0005.95,0005.24
2022-05-05 09:06:00,,0824.7,5.00,0.00,25.4,24.5,00.0,34.3,27.2,20.5,-000.6,0009.41,0005.90,0005.19
2022-05-05 09:07:00,,0824.8,5.02,0.00,25.4,24.5,00.0,34.3,27.2,20.5,-001.9,0009.37,0005.86,0005.17
2022-05-05 09:08:00,,0824.8,4.98,0.00,25.4,24.5,00.0,34.3,27.2,20.5,-002.4,0009.29,0005.82,0005.15
2022-05-05 09:09:00,,0824.8,5.01,0.00,25.4,24.5,00.0,34.3,27.2,20.5,-002.0,0009.28,0005.80,0005.13
2022-05-05 09:10:00,,0824.9,4.99,0.00,25.4,24.5,00.0,34.3,27.2,20.5,-001.7,0009.18,0005.74,0005.12
2022-05-05 09:11:00,,0824.8,5.00,0.00,25.4,24.5,00.0,34.3,27.2,20.5,-001.6,0009.16,0005.73,0005.11
2022-05-05 09:12:00,,0824.9,5.01,0.00,25.4,24.5,00.0,34.3,27.2,20.5,-000.8,0009.26,0005.76,0005.10
2022-05-05 09:13:00,,0824.9,4.99,0.00,25.4,24.5,00.0,34.3,27.2,20.5,-000.6,0009.25,0005.75,0005.09
2022-05-05 09:14:00,,0824.8,5.00,0.00,25.3,24.5,00.0,34.3,27.2,20.5,-000.1,0009.23,0005.77,0005.10
2022-05-05 09:15:00,,0824.8,5.00,0.00,25.3,24.5,00.0,34.3,27.2,20.5,0000.2,0009.20,0005.77,0005.11
2022-05-05 09:16:00,,0824.8,5.01,0.00,25.3,24.5,00.0,34.3,27.2,20.5,0000.8,0009.27,0005.79,0005.12
2022-05-05 09:17:00,,0824.8,4.99,0.00,25.3,24.5,00.0,34.3,27.1,20.5,0001.2,0009.38,0005.82,0005.13
2022-05-05 09:18:00,,0824.8,5.02,0.00,25.3,24.5,00.0,34.3,27.1,20.5,0001.7,0009.29,0005.79,0005.13
2022-05-05 09:19:00,,0824.8,5.00,0.00,25.3,24.5,00.0,34.3,27.1,20.5,0001.5,0009.30,0005.80,0005.15
2022-05-05 09:20:00,,0824.8,4.99,0.00,25.3,24.4,00.0,34.3,27.1,20.5,0000.8,0009.49,0005.75,0005.17
2022-05-05 09:21:00,,0824.9,5.01,0.00,25.3,24.4,00.0,34.3,27.1,20.7,0000.4,0009.52,0005.79,0005.20
2022-05-05 09:22:00,,0824.8,4.99,0.00,25.3,24.4,00.0,34.3,27.1,20.9,0000.9,0009.56,0005.81,0005.22
2022-05-05 09:23:00,,0824.8,5.01,0.00,25.3,24.4,00.0,34.3,27.1,20.9,0001.1,0009.54,0005.81,0005.24
2022-05-05 09:24:00,,0824.9,5.00,0.00,25.3,24.4,00.0,34.3,27.1,20.9,0002.1,0009.75,0005.83,0005.25
2022-05-05 09:25:00,,0824.9,4.99,0.00,25.3,24.4,00.0,34.3,27.1,21.0,0002.7,0010.05,0005.87,0005.27
2022-05-05 09:26:00,,0824.9,5.01,0.00,25.3,24.4,00.0,34.3,27.1,21.0,0002.8,0010.21,0005.92,0005.30
2022-05-05 09:27:00,,0824.8,5.00,0.00,25.3,24.4,00.0,34.3,27.1,21.0,0002.1,0010.17,0005.91,0005.32
2022-05-05 09:28:00,,0824.9,5.01,0.00,25.3,24.4,00.0,34.3,27.1,21.1,0001.1,0010.17,0005.94,0005.34
2022-05-05 09:29:00,,0824.9,4.99,0.00,25.3,24.4,00.0,34.3,27.1,21.2,0001.1,0010.26,0005.99,0005.37
2022-05-05 09:30:00,,0824.9,5.00,0.00,25.3,24.4,00.0,34.3,27.1,21.1,0003.1,0010.44,0006.06,0005.39
2022-05-05 09:31:00,,0824.9,5.01,0.00,25.3,24.4,00.0,34.2,27.1,21.0,0003.1,0010.26,0006.12,0005.40
2022-05-05 09:32:00,,0824.9,4.99,0.00,25.3,24.4,00.0,34.2,27.1,21.0,0002.0,0010.28,0006.14,0005.40
2022-05-05 09:33:00,,0824.9,5.01,0.00,25.3,24.4,00.0,34.2,27.1,21.1,0001.4,0010.40,0006.11,0005.39
2022-05-05 09:34:00,,0824.9,5.00,0.00,25.3,24.4,00.0,34.2,27.1,21.1,0001.4,0011.03,0006.11,0005.38
2022-05-05 09:35:00,,0824.9,4.99,0.00,25.3,24.4,00.0,34.2,27.1,21.1,0001.5,0010.82,0006.09,0005.39
2022-05-05 09:36:00,,0824.9,5.01,0.00,25.2,24.3,00.0,34.2,27.0,21.2,0001.1,0010.49,0006.06,0005.39
2022-05-05 09:37:00,,0824.9,4.99,0.00,25.2,24.4,00.0,34.2,27.0,21.3,0000.6,0010.39,0006.04,0005.39
2022-05-05 09:38:00,,0824.9,5.00,0.00,25.2,24.4,00.0,34.2,27.0,21.3,-000.1,0010.32,0006.03,0005.39
2022-05-05 09:39:00,,0824.9,4.99,0.00,25.2,24.3,00.0,34.2,27.1,21.3,0000.1,0010.24,0005.99,0005.39
2022-05-05 09:40:00,,0824.9,5.01,0.00,25.2,24.3,00.0,34.2,27.0,21.3,0001.0,0010.21,0005.98,0005.38
2022-05-05 09:41:00,,0824.9,4.99,0.00,25.2,24.3,00.0,34.2,27.0,21.4,0000.5,0010.26,0005.94,0005.37
2022-05-05 09:42:00,,0824.9,4.99,0.00,25.2,24.3,00.0,34.2,27.0,21.4,0000.3,0011.00,0005.94,0005.38
2022-05-05 09:43:00,,0824.9,5.00,0.00,25.2,24.3,00.0,34.2,27.0,21.5,0000.8,0010.99,0005.95,0005.40
2022-05-05 09:44:00,,0824.8,5.00,0.00,25.2,24.3,00.0,34.2,27.0,21.5,0001.4,0011.22,0006.01,0005.42
2022-05-05 09:45:00,,0824.8,5.00,0.00,25.2,24.3,00.0,34.2,27.0,21.5,0001.0,0010.46,0006.00,0005.42
2022-05-05 09:46:00,,0824.9,5.01,0.00,25.2,24.3,00.0,34.1,27.0,21.5,0000.5,0010.58,0006.05,0005.42
2022-05-05 09:47:00,,0824.9,4.99,0.00,25.2,24.3,00.0,34.1,27.0,21.5,0000.2,0010.62,0006.08,0005.42
2022-05-05 09:48:00,,0824.9,5.02,0.00,25.1,24.2,00.0,34.1,27.0,21.5,0000.1,0010.62,0006.09,0005.41
2022-05-05 09:49:00,,0824.8,4.99,0.00,25.1,24.2,00.0,34.1,27.0,21.5,-000.1,0010.68,0006.11,0005.40
2022-05-05 09:50:00,,0824.8,5.01,0.00,25.1,24.2,00.0,34.1,27.0,21.5,-000.2,0010.77,0006.15,0005.38
2022-05-05 09:51:00,,0824.7,4.98,0.00,25.1,24.2,00.0,34.1,26.9,21.4,0000.0,0010.78,0006.16,0005.38
2022-05-05 09:52:00,,0824.7,5.01,0.00,25.1,24.2,00.0,34.1,26.9,21.3,0000.0,0010.71,0006.16,0005.38
2022-05-05 09:53:00,,0824.8,4.99,0.00,25.1,24.2,00.0,34.1,26.9,21.3,-000.7,0009.86,0006.14,0005.38
2022-05-05 09:54:00,,0824.7,5.00,0.00,25.1,24.2,00.0,34.1,26.9,21.4,-000.5,0009.80,0006.12,0005.37
2022-05-05 09:55:00,,0824.8,5.00,0.00,25.1,24.2,00.0,34.1,26.8,21.5,-000.3,0009.58,0006.07,0005.38
2022-05-05 09:56:00,,0824.9,5.00,0.00,25.1,24.2,00.0,34.1,26.8,21.7,0000.2,0009.63,0006.08,0005.38
2022-05-05 09:57:00,,0824.9,4.99,0.00,25.1,24.2,00.0,34.1,26.9,21.7,0000.0,0009.82,0006.06,0005.38
2022-05-05 09:58:00,,0824.9,5.01,0.00,25.1,24.1,00.0,34.1,26.9,21.7,0000.0,0009.97,0006.06,0005.39
2022-05-05 09:59:00,,0824.9,4.99,0.00,25.0,24.1,00.0,34.1,26.8,22.1,0000.0,0010.03,0006.07,0005.39
